#timestamp,LO_Frequency,Hit 
1616572815.5,286047003.7,P
1616572835.3,286047000.0,N
1616572855.2,286047000.4,N
1616572875.0,286047002.2,N
1616572875.9,286047002.2,N
1616572895.7,286047001.3,N
1616572915.6,286047002.5,N
1616572935.4,286046999.7,N
1616572955.2,286047001.8,N
1616572975.1,286047002.2,N
1616572976.0,286047002.2,N
1616572995.8,286047001.9,N
1616573015.6,286047002.2,N
1616573035.5,286047002.1,N
1616573055.3,286047002.1,N
1616573075.1,286047002.5,N
1616573095.9,286047002.6,N
1616573115.7,286047001.7,N
1616573135.6,286047003.8,P
1616573155.4,286047000.1,N
1616573175.2,286047002.2,N
1616573195.0,286047002.7,N
1616573195.9,286047002.7,N
1616573215.8,286047002.7,N
1616573235.6,286047002.3,N
1616573255.4,286047002.2,N
1616573275.3,286046999.9,N
1616573295.1,286047002.1,N
1616573315.8,286046999.7,N
1616573335.7,286047002.1,N
1616573355.5,286047002.5,N
1616573375.3,286047001.8,N
1616573395.2,286047002.4,N
1616573415.0,286047004.3,P
1616573415.9,286047004.3,P
1616573435.8,286047000.8,N
1616573455.6,286046998.1,N
1616573475.4,286047002.8,N
1616573495.3,286046999.8,N
1616573515.1,286046999.7,N
1616573516.0,286046999.7,N
1616573535.8,286047000.9,N
1616573555.7,286046999.9,N
1616573575.5,286047000.1,N
1616573595.3,286047000.9,N
1616573615.1,286047000.5,N
1616573635.9,286047002.4,N
1616573655.7,286046999.8,N
1616573675.5,286046999.7,N
1616573695.4,286047000.2,N
1616573715.2,286047000.3,N
1616573735.0,286047000.5,N
1616573735.9,286047000.5,N
1616573755.8,286047000.2,N
1616573775.6,286047000.0,N
1616573795.4,286047002.7,N
1616573815.3,286047000.1,N
1616573835.1,286047002.7,N
1616573855.8,286047002.2,N
1616573875.7,286047002.4,N
1616573895.5,286047001.8,N
1616573915.3,286047002.8,N
1616573935.2,286047002.5,N
1616573955.0,286047002.4,N
1616573955.9,286047002.4,N
1616573975.7,286047001.6,N
1616573995.6,286047001.9,N
1616574015.4,286047002.3,N
1616574035.3,286047004.3,P
1616574055.1,286047000.3,N
1616574056.0,286047000.3,N
1616574075.8,286046999.8,N
1616574095.7,286047000.9,N
1616574115.5,286047000.2,N
1616574135.3,286047000.6,N
1616574155.1,286047002.3,N
1616574175.9,286047000.2,N
1616574195.7,286046999.9,N
1616574215.5,286047002.6,N
1616574235.4,286047000.2,N
1616574255.2,286047002.5,N
1616574275.0,286046999.7,N
1616574275.9,286046999.7,N
1616574295.8,286047002.7,N
1616574315.6,286047002.3,N
1616574335.4,286047000.1,N
1616574355.3,286047000.2,N
1616574375.1,286046999.9,N
1616574395.8,286047002.4,N
1616574415.7,286047002.8,N
1616574435.5,286047000.5,N
1616574455.3,286046999.7,N
1616574475.2,286047002.3,N
1616574495.9,286047002.8,N
1616574515.7,286047000.6,N
1616574535.6,286047000.3,N
1616574555.4,286047000.8,N
1616574575.2,286047001.2,N
1616574595.1,286047000.0,N
1616574596.0,286047000.0,N
1616574615.8,286046999.8,N
1616574635.6,286046998.4,N
1616574655.5,286046998.7,N
1616574675.3,286046998.5,N
1616574695.1,286046998.9,N
1616574715.9,286046998.8,N
1616574735.7,286046999.1,N
1616574755.5,286046997.0,N
1616574775.4,286046999.2,N
1616574795.2,286046999.4,N
1616574815.0,286046996.5,N
1616574815.9,286046996.5,N
1616574835.8,286046998.8,N
1616574855.6,286046999.2,N
1616574875.4,286046999.5,N
1616574895.2,286046997.3,N
1616574915.1,286046996.7,N
1616574916.0,286046996.7,N
1616574935.8,286046999.5,N
1616574955.6,286046998.0,N
1616574975.5,286046997.5,N
1616574995.3,286046994.9,P
1616575015.2,286046996.7,N
1616575035.9,286046999.2,N
1616575055.7,286046997.8,N
1616575075.6,286046997.5,N
1616575095.4,286046998.0,N
1616575115.2,286046997.9,N
1616575135.0,286046997.3,N
1616575136.0,286046997.3,N
1616575155.8,286046996.8,N
1616575175.6,286046995.3,P
1616575195.5,286046999.4,N
1616575215.3,286046999.4,N
1616575235.1,286046999.0,N
1616575255.9,286046999.0,N
1616575275.7,286046999.3,N
1616575295.5,286046999.5,N
1616575315.3,286046999.4,N
1616575335.2,286046998.7,N
1616575355.0,286046997.8,N
1616575355.9,286046997.8,N
1616575375.7,286046999.4,N
1616575395.6,286046999.4,N
1616575415.4,286046996.5,P
1616575435.3,286047001.2,N
1616575455.1,286046998.8,N
1616575456.0,286046998.8,N
1616575475.8,286047001.0,N
1616575495.7,286047001.1,N
1616575515.5,286046999.0,N
1616575535.3,286047000.9,N
1616575555.2,286047000.8,N
1616575575.9,286046998.1,N
1616575595.7,286046998.3,N
1616575615.5,286046998.1,N
1616575635.4,286046998.8,N
1616575655.2,286046998.5,N
1616575675.0,286046998.9,N
1616575675.9,286046998.9,N
1616575695.8,286046998.2,N
1616575715.6,286046998.1,N
1616575735.4,286046998.5,N
1616575755.3,286046996.9,N
1616575775.1,286046996.7,N
1616575795.8,286046999.4,N
1616575815.7,286046997.0,N
1616575835.5,286046997.0,N
1616575855.3,286046997.5,N
1616575875.2,286046996.6,N
1616575895.9,286046997.2,N
1616575915.7,286046999.6,N
1616575935.6,286046999.3,N
1616575955.4,286046997.0,N
1616575975.2,286046996.7,N
1616575995.1,286046997.2,N
1616575996.0,286046997.2,N
1616576015.8,286046996.7,N
1616576035.6,286046999.2,N
1616576055.5,286046996.6,N
1616576075.3,286046997.1,N
1616576095.1,286046997.8,N
1616576115.9,286046997.5,N
1616576135.7,286046997.9,N
1616576155.5,286046996.9,P
1616576175.4,286047001.1,N
1616576195.2,286046998.9,N
1616576215.0,286046999.6,N
1616576215.9,286046999.6,N
1616576235.8,286046996.9,N
1616576255.6,286046998.4,N
1616576275.4,286046998.7,N
1616576295.3,286046999.1,N
1616576315.1,286046999.5,N
1616576316.0,286046999.5,N
1616576335.8,286046998.3,N
1616576355.7,286046999.4,N
1616576375.5,286046996.6,P
1616576395.3,286047000.7,N
